Location: Newark
(59.4564°N, 26.6917°E)
Time: 19:55:34
(UTC+00:00)

N. Korean satellite - Visible Passes

Search period start: 16 October 2019 00:00
Search period end: 26 October 2019 00:00
Orbit: 455 x 508 km, 97.2° (Epoch: 15 October)

Date Brightness Start Highest point End Pass type
(mag) Time Alt. Az. Time Alt. Az. Time Alt. Az.
16 Oct 9.8 03:19:37 10° NE 03:22:13 19° E 03:24:49 10° SE visible
17 Oct 10.3 02:55:19 10° ENE 02:56:39 12° E 02:57:58 10° ESE visible
18 Oct 8.0 04:01:53 10° NNE 04:05:19 43° E 04:08:47 10° S visible
18 Oct 10.0 16:21:21 10° SW 16:23:32 16° W 16:25:44 10° NW visible
19 Oct 9.1 03:36:47 10° NE 03:39:53 26° E 03:42:59 10° SSE visible
19 Oct 9.2 15:55:04 10° SSW 15:57:59 25° W 16:00:58 10° NW visible
20 Oct 10.0 03:11:58 10° NE 03:14:21 17° E 03:16:44 10° SE visible
20 Oct 8.0 15:29:14 10° S 15:32:31 43° W 15:35:54 10° NNW visible
21 Oct 10.6 02:48:18 10° ENE 02:48:44 10° E 02:49:11 10° E visible
21 Oct 7.1 04:19:17 10° NNE 04:22:52 65° ESE 04:26:30 10° S visible
21 Oct 10.4 16:40:06 10° WSW 16:41:14 11° W 16:42:22 10° WNW visible
22 Oct 8.4 03:54:05 10° NNE 03:57:28 37° E 04:00:54 10° SSE visible
22 Oct 9.8 16:13:08 10° SW 16:15:37 18° W 16:18:09 10° NW visible
23 Oct 9.4 03:29:03 10° NE 03:32:00 23° E 03:34:58 10° SSE visible
23 Oct 8.8 15:47:00 10° SSW 15:50:05 30° W 15:53:15 10° NNW visible
24 Oct 10.1 03:04:20 10° NE 03:06:26 15° E 03:08:33 10° ESE visible
24 Oct 7.6 15:21:15 10° S 15:24:39 51° W 15:28:06 10° NNW visible
25 Oct 7.5 04:11:25 10° NNE 04:15:01 55° E 04:18:38 10° S visible
25 Oct 10.1 16:31:31 10° WSW 16:33:16 13° W 16:35:02 10° NW visible
